{"data":{"norad_id":41772,"epoch":"2026-09-20T01:41:58.204320Z","epoch_age_seconds":51368,"freshness":"FRESH","line1":"1 41772U 16058C   26263.07081255  .00004599  00000+0  14096-3 0  9997","line2":"2 41772  97.0399 299.3852 0000753  11.6123 348.5138 15.34251121558293","mean_motion":15.34251121,"eccentricity":7.53e-5,"inclination_deg":97.0399,"raan_deg":299.3852,"arg_perigee_deg":11.6123,"mean_anomaly_deg":348.5138,"bstar":0.00014096,"rev_number":55829,"period_min":93.856864778527,"perigee_km":462.63062715888,"apogee_km":463.6609243449,"semimajor_km":6841.2827757519,"source":"CELESTRAK","updated_at":"2026-09-20T09:00:34.707435Z"}}